{"data":{"norad_id":40350,"intl_designator":"2014-083C","name":"O3B FM12","alt_names":[],"object_type":"PAYLOAD","status":"ACTIVE","operator":null,"country":"O3B","launch_date":"2014-12-18","launch_site_code":"FRGUI","launch_vehicle":null,"mission":null,"orbit_class":"UNKNOWN","rcs_meters":7.8074,"size_class":null,"mass_kg":null,"dimensions":null,"purposes":["comms"],"wikipedia_slug":null,"has_3d_model":false,"image_url":null,"decayed_at":null,"tle_current":{"epoch":"2026-09-19T17:55:58.333152Z","epoch_age_seconds":79779,"freshness":"FRESH","line1":"1 40350U 14083C   26262.74720293 -.00000027  00000+0  00000+0 0  9998","line2":"2 40350   0.0531 348.8916 0002418 189.9760 181.1351  5.00116041214653","mean_motion":5.00116041,"eccentricity":0.0002418,"inclination_deg":0.0531,"raan_deg":348.8916,"arg_perigee_deg":189.976,"mean_anomaly_deg":181.1351,"bstar":0,"rev_number":21465,"period_min":287.93317589267,"perigee_km":8062.3872384827,"apogee_km":8069.3723650081,"semimajor_km":14444.016801745,"source":"CELESTRAK","updated_at":"2026-09-20T09:00:35.683752Z"}}}